Waarnemingen

Advertentie
Mijn weer
Aurillac, Frankrijk (7549): temperatuur & dauwpunt: 18.08.2019 00:00:00 - 24.08.2019 00:00:00 (CEST)Aurillac, Frankrijk (7549): temperatuur 5cm: 18.08.2019 00:00:00 - 24.08.2019 00:00:00 (CEST)Aurillac, Frankrijk (7549): temperatuur -20cm & temperatuur -100cm: 18.08.2019 00:00:00 - 24.08.2019 00:00:00 (CEST)Aurillac, Frankrijk (7549): windsnelheid & windstoten: 18.08.2019 00:00:00 - 24.08.2019 00:00:00 (CEST)Aurillac, Frankrijk (7549): windrichting: 18.08.2019 00:00:00 - 24.08.2019 00:00:00 (CEST)Aurillac, Frankrijk (7549): luchtdruk: 18.08.2019 00:00:00 - 24.08.2019 00:00:00 (CEST)Aurillac, Frankrijk (7549): zicht: 18.08.2019 00:00:00 - 24.08.2019 00:00:00 (CEST)Aurillac, Frankrijk (7549): Zonneschijnduur: 18.08.2019 00:00:00 - 24.08.2019 00:00:00 (CEST)Aurillac, Frankrijk (7549): neerslag: 18.08.2019 00:00:00 - 24.08.2019 00:00:00 (CEST)
Datum & Tijd tt [°C] td [°C] tt 5cm [°C] tt -20cm [°C] tt -100cm [°C] ff [km/u] ff [kn] fx [km/u] fx [kn] dd ppp [hPa] vv [km] sd [min] rr [mm]
24.08.2019 00:00:00 14,7 9,5 10,6 21,1 18,4 10 5 14 7 OZO 1020,4 60 0 0,0
23.08.2019 23:00:00 15,9 9,3 11,7 21,0 18,4 4 2 14 8 OZO 1019,9 60 0 0,0
23.08.2019 22:00:00 19,2 9,9 14,9 20,9 18,4 14 7 18 10 O 1018,8 60 0 0,0
23.08.2019 21:00:00 21,6 9,5 16,8 20,7 18,4 7 4 10 5 ZO 1018,0 15 21 0,0
23.08.2019 20:00:00 27,4 7,3 23,6 20,5 18,4 3 2 7 4 Z 1016,5 60 60 0,0
23.08.2019 19:00:00 28,9 8,6 27,9 20,2 18,4 3 1 10 6 ZO 1016,1 59 60 0,0
23.08.2019 18:00:00 29,1 5,2 30,3 19,9 18,4 5 3 10 5 Z 1016,4 56 60 0,0
23.08.2019 17:00:00 29,2 4,6 30,3 19,7 18,4 5 3 11 6 ZZW 1016,7 19 60 0,0
23.08.2019 16:00:00 28,8 5,0 32,3 19,4 18,4 6 4 14 7 ZO 1017,2 60 60 0,0
23.08.2019 15:00:00 28,6 3,4 31,3 19,2 18,4 6 3 13 7 Z 1017,7 19 60 0,0
23.08.2019 14:00:00 27,8 4,1 30,9 19,1 18,5 5 3 14 8 N 1018,2 20 60 0,0
23.08.2019 13:00:00 27,4 5,6 30,5 19,1 18,4 5 3 14 7 ZZO 1018,4 60 60 0,0
23.08.2019 12:00:00 26,1 8,6 28,4 19,1 18,5 4 2 15 8 ZZO 1018,9 20 60 0,0
23.08.2019 11:00:00 23,8 11,1 23,7 19,2 18,4 2 1 7 4 Z 1019,7 60 60 0,0
23.08.2019 10:00:00 19,9 11,1 19,7 19,4 18,5 4 2 8 4 OZO 1020,7 37 60 0,0
23.08.2019 09:00:00 15,1 8,8 15,0 19,5 18,5 4 2 7 4 OZO 1022,1 55 60 0,0
23.08.2019 08:00:00 11,8 7,9 7,6 19,7 18,5 3 2 7 4 OZO 1023,1 58 37 0,0
23.08.2019 07:00:00 9,6 6,5 6,9 19,9 18,5 4 2 8 4 OZO 1023,7 60 0 0,0
23.08.2019 06:00:00 10,9 6,2 7,0 20,0 18,5 3 2 5 3 ZO 1023,4 60 0 0,0
23.08.2019 05:00:00 11,8 6,1 8,1 20,2 18,5 4 2 9 5 O 1023,0 60 0 0,0
23.08.2019 04:00:00 13,2 6,5 10,5 20,3 18,5 0 0 18 10 N 1022,8 60 0 0,0
23.08.2019 03:00:00 15,9 6,3 11,2 20,4 18,5 14 8 18 10 O 1022,2 60 0 0,0
23.08.2019 02:00:00 16,1 7,6 10,1 20,5 18,5 10 5 16 9 O 1022,5 60 0 0,0
23.08.2019 01:00:00 14,1 9,5 10,9 20,5 18,5 9 5 16 8 OZO 1023,2 60 0 0,0
23.08.2019 00:00:00 16,2 10,1 11,3 20,5 18,5 6 3 12 6 OZO 1022,9 60 0 0,0
22.08.2019 23:00:00 18,1 10,5 14,3 20,4 18,5 10 5 15 8 O 1022,3 60 0 0,0
22.08.2019 22:00:00 18,7 11,0 14,9 20,2 18,6 8 4 17 9 ZO 1022,0 60 0 0,0
22.08.2019 21:00:00 21,2 11,5 17,2 20,0 18,6 8 5 13 7 Z 1020,7 21 23 0,0
22.08.2019 20:00:00 24,7 10,6 23,1 19,8 18,6 9 5 17 9 WZW 1019,3 60 60 0,0
22.08.2019 19:00:00 27,1 9,9 26,9 19,4 18,6 6 3 14 8 WZW 1018,4 59 60 0,0
22.08.2019 18:00:00 27,3 10,9 28,4 19,1 18,6 6 3 13 7 NW 1018,7 44 60 0,0
22.08.2019 17:00:00 27,0 10,2 28,3 18,8 18,6 6 3 16 9 NW 1018,9 59 60 0,0
22.08.2019 16:00:00 26,0 11,7 29,4 18,6 18,6 6 3 15 8 NW 1019,5 60 60 0,0
22.08.2019 15:00:00 24,7 10,9 28,5 18,3 18,6 9 5 16 9 NW 1020,3 57 60 0,0
22.08.2019 14:00:00 23,6 11,3 28,2 18,2 18,6 8 4 18 10 NNW 1020,5 60 60 0,0
22.08.2019 13:00:00 22,9 10,3 26,1 18,2 18,6 3 2 18 10 N 1020,9 55 60 0,0
22.08.2019 12:00:00 21,1 8,0 24,8 18,2 18,6 5 3 13 7 NW 1021,6 20 60 0,0
22.08.2019 11:00:00 20,0 9,8 23,1 18,3 18,6 3 2 10 5 N 1021,6 19 60 0,0
22.08.2019 10:00:00 18,0 10,8 17,5 18,5 18,6 0 0 6 3 N 1021,8 52 60 0,0
22.08.2019 09:00:00 13,2 9,1 12,6 18,7 18,6 4 2 6 3 OZO 1023,0 52 60 0,0
22.08.2019 08:00:00 9,6 7,7 4,6 18,9 18,6 3 2 7 4 O 1023,6 57 38 0,0
22.08.2019 07:00:00 8,3 7,1 4,4 19,0 18,6 3 2 5 3 O 1023,5 60 0 0,0
22.08.2019 06:00:00 7,3 5,9 4,5 19,2 18,7 4 2 8 4 ZO 1023,8 60 0 0,0
22.08.2019 05:00:00 7,8 6,6 4,8 19,4 18,6 5 3 6 3 O 1023,7 16 0 0,0
22.08.2019 04:00:00 8,2 6,7 5,9 19,5 18,6 3 2 7 4 O 1023,6 18 0 0,0
22.08.2019 03:00:00 8,9 7,0 6,4 19,6 18,6 4 2 8 5 OZO 1023,6 59 0 0,0
22.08.2019 02:00:00 9,8 7,6 7,9 19,7 18,6 3 2 13 7 O 1023,5 60 0 0,0
22.08.2019 01:00:00 10,5 8,4 8,2 19,8 18,7 8 4 10 5 O 1023,5 60 0 0,0
22.08.2019 00:00:00 11,2 8,6 8,4 19,8 18,7 4 2 6 3 Z 1023,6 60 0 0,0
21.08.2019 23:00:00 13,4 8,9 9,7 19,7 18,7 0 0 8 4 N 1023,0 60 0 0,0
21.08.2019 22:00:00 16,3 9,2 11,5 19,6 18,7 5 3 13 7 O 1021,9 60 0 0,0
21.08.2019 21:00:00 18,5 9,0 13,8 19,5 18,7 7 4 14 7 O 1020,8 60 24 0,0
21.08.2019 20:00:00 20,8 9,1 19,1 19,2 18,7 9 5 14 8 ZZO 1019,9 37 60 0,0
21.08.2019 19:00:00 22,7 9,1 22,2 19,0 18,7 7 4 11 6 OZO 1019,1 60 60 0,0
21.08.2019 18:00:00 23,3 8,2 21,9 18,7 18,7 5 3 16 8 ZZO 1019,3 60 24 0,0
21.08.2019 17:00:00 23,2 8,5 24,9 18,4 18,7 8 4 18 10 ZO 1019,6 41 60 0,0
21.08.2019 16:00:00 23,1 7,6 26,0 18,1 18,7 6 3 16 9 OZO 1019,8 20 60 0,0
21.08.2019 15:00:00 22,6 9,4 24,6 17,9 18,7 5 3 22 12 ZW 1020,3 59 53 0,0
21.08.2019 14:00:00 22,1 10,3 25,6 17,8 18,7 6 3 14 8 W 1020,7 60 58 0,0
21.08.2019 13:00:00 20,2 6,9 23,2 17,8 18,7 6 3 14 8 NW 1021,6 44 60 0,0
21.08.2019 12:00:00 19,1 7,5 21,5 17,9 18,7 8 4 14 8 WNW 1022,0 20 60 0,0
21.08.2019 11:00:00 17,3 7,9 18,3 18,0 18,7 5 3 10 5 NNW 1023,1 58 55 0,0
21.08.2019 10:00:00 14,9 11,1 15,8 18,2 18,7 2 1 6 3 OZO 1023,9 50 60 0,0
21.08.2019 09:00:00 9,3 8,5 8,8 18,4 18,7 4 2 7 4 W 1025,7 22 60 0,0
21.08.2019 08:00:00 6,1 5,8 1,8 18,6 18,7 2 1 9 5 OZO 1026,1 20 39 0,0
21.08.2019 07:00:00 4,5 4,1 1,8 18,8 18,7 3 2 9 5 O 1026,5 0,6 0 0,0
21.08.2019 06:00:00 4,8 4,4 2,1 19,0 18,7 4 2 8 5 ZO 1026,5 0,3 0 0,0
21.08.2019 05:00:00 5,9 5,5 3,0 19,2 18,7 4 2 8 4 OZO 1026,7 0,6 0 0,0
21.08.2019 04:00:00 6,6 6,2 3,6 19,3 18,7 6 3 8 4 OZO 1026,7 1,6 0 0,0
21.08.2019 03:00:00 7,2 6,6 4,5 19,5 18,7 5 3 8 5 OZO 1026,9 12 0 0,0
21.08.2019 02:00:00 8,1 7,5 4,9 19,6 18,7 5 3 11 6 O 1026,8 18 0 0,0
21.08.2019 01:00:00 9,1 8,3 6,4 19,7 18,7 5 3 8 4 OZO 1026,9 30 0 0,0
21.08.2019 00:00:00 10,8 9,7 7,7 19,7 18,7 0 0 3 2 N 1026,6 20 0 0,0
20.08.2019 23:00:00 12,3 10,4 9,1 19,6 18,7 2 1 9 5 ONO 1025,9 59 0 0,0
20.08.2019 22:00:00 13,6 10,9 11,3 19,6 18,7 8 5 15 8 O 1025,6 60 0 0,0
20.08.2019 21:00:00 16,0 12,2 13,0 19,5 18,7 7 4 14 8 O 1024,7 60 26 0,0
20.08.2019 20:00:00 18,7 12,7 18,2 19,5 18,8 6 3 11 6 WZW 1023,4 60 57 0,0
20.08.2019 19:00:00 19,1 13,1 19,8 19,4 18,8 5 3 11 6 W 1023,0 60 47 0,0
20.08.2019 18:00:00 19,3 13,2 19,2 19,3 18,7 5 3 15 8 W 1022,8 20 34 0,0
20.08.2019 17:00:00 17,8 13,1 19,5 19,4 18,7 3 2 11 6 ZZW 1023,3 20 37 0,0
20.08.2019 16:00:00 15,9 13,6 14,8 19,5 18,7 4 2 8 5 NW 1023,9 20 4 0,0
20.08.2019 15:00:00 14,2 12,8 13,6 19,5 18,7 8 4 13 7 WNW 1024,9 43 0 0,0
20.08.2019 14:00:00 14,0 12,4 13,9 19,6 18,7 8 4 14 7 NW 1024,3 51 0 0,2
20.08.2019 13:00:00 13,7 12,6 13,3 19,7 18,7 7 4 11 6 W 1024,3 31 0 0,2
20.08.2019 12:00:00 12,9 12,1 12,5 19,8 18,7 7 4 11 6 O 1023,6 12 0 0,4
20.08.2019 11:00:00 12,5 11,9 12,5 20,0 18,8 5 3 22 12 WNW 1023,8 12 0 1,0
20.08.2019 10:00:00 13,4 12,8 13,1 20,1 18,7 2 1 6 3 WNW 1022,1 8 0 1,4
20.08.2019 09:00:00 13,1 12,5 12,9 20,2 18,7 0 0 6 4 N 1022,0 10 0 1,0
20.08.2019 08:00:00 13,0 12,4 12,9 20,3 18,7 4 2 14 8 N 1021,5 12 0 0,2
20.08.2019 07:00:00 13,3 12,7 12,9 20,5 18,7 4 2 7 4 W 1020,7 26 0 0,0
20.08.2019 06:00:00 13,3 12,7 13,1 20,6 18,8 5 3 7 4 WNW 1020,6 20 0 0,2
20.08.2019 05:00:00 13,0 12,4 12,5 20,7 18,7 3 2 7 4 WNW 1020,6 34 0 0,0
20.08.2019 04:00:00 12,7 12,1 12,6 20,9 18,7 6 3 8 5 OZO 1019,9 20 0 0,0
20.08.2019 03:00:00 12,7 11,9 12,2 21,0 18,7 4 2 9 5 O 1020,5 31 0 0,4
20.08.2019 02:00:00 12,8 11,9 12,3 21,1 18,7 2 1 7 4 ZZO 1021,1 2,0 0 1,8
20.08.2019 01:00:00 12,7 11,8 12,2 21,3 18,8 5 3 8 4 O 1021,1 39 0 0,0
20.08.2019 00:00:00 13,0 11,9 12,6 21,3 18,7 7 4 10 5 WZW 1021,7 41 0 0,0
19.08.2019 23:00:00 13,2 11,6 12,3 21,3 18,7 4 2 21 11 ZW 1021,3 58 0 0,0
19.08.2019 22:00:00 13,9 10,7 12,4 21,3 18,7 7 4 16 9 NNW 1021,6 57 0 2,2
19.08.2019 21:00:00 16,0 9,4 14,4 21,2 18,7 5 3 13 7 WNW 1020,2 49 0 0,0
19.08.2019 20:00:00 17,6 9,0 16,7 21,2 18,7 8 4 18 10 NW 1019,5 60 27 0,0
19.08.2019 19:00:00 18,8 9,3 18,7 21,0 18,7 9 5 16 9 W 1019,0 60 21 0,0
19.08.2019 18:00:00 19,3 8,9 20,4 20,9 18,7 10 5 18 10 WNW 1019,0 55 18 0,0
19.08.2019 17:00:00 19,7 8,7 21,4 20,9 18,7 6 4 19 10 WNW 1018,9 59 43 0,0
19.08.2019 16:00:00 18,9 9,7 20,1 20,9 18,7 9 5 24 13 NNW 1019,2 52 37 0,0
19.08.2019 15:00:00 17,9 10,3 19,6 21,0 18,7 9 5 21 11 NNW 1019,8 39 35 0,0
19.08.2019 14:00:00 17,0 11,3 17,7 21,0 18,7 12 6 22 12 NW 1019,8 20 24 0,0
19.08.2019 13:00:00 15,1 11,3 14,8 21,2 18,7 10 6 20 11 WNW 1020,3 49 0 0,0
19.08.2019 12:00:00 14,0 11,7 14,2 21,3 18,7 10 5 17 9 WNW 1020,6 54 0 0,0
19.08.2019 11:00:00 13,5 12,1 14,0 21,5 18,7 9 5 19 10 WNW 1020,4 51 0 0,0
19.08.2019 10:00:00 13,6 12,5 13,8 21,6 18,7 8 4 21 12 WNW 1019,6 52 0 0,0
19.08.2019 09:00:00 13,4 12,6 13,4 21,8 18,7 8 5 22 12 WNW 1019,7 30 0 0,0
19.08.2019 08:00:00 13,4 12,6 13,4 21,9 18,7 10 5 18 10 WNW 1019,5 34 0 0,0
19.08.2019 07:00:00 13,7 13,1 13,7 22,1 18,7 8 4 17 9 WNW 1018,6 36 0 0,0
19.08.2019 06:00:00 13,9 13,3 13,9 22,2 18,7 11 6 22 12 NW 1018,0 37 0 0,0
19.08.2019 05:00:00 14,1 13,5 14,1 22,4 18,8 9 5 17 9 W 1018,0 34 0 0,3
19.08.2019 04:00:00 14,7 13,9 14,5 22,5 18,7 6 3 18 10 NW 1018,0 18 0 0,6
19.08.2019 03:00:00 15,3 14,3 14,9 22,5 18,7 6 3 22 12 WNW 1017,6 42 0 3,4
19.08.2019 02:00:00 16,3 14,8 15,4 22,6 18,7 11 6 25 13 N 1016,6 60 0 1,0
19.08.2019 01:00:00 17,4 16,3 17,0 22,6 18,8 11 6 29 15 WNW 1016,3 19 0 0,2
19.08.2019 00:00:00 18,9 17,6 18,3 22,6 18,8 9 5 24 13 W 1015,7 10 0 4,3
18.08.2019 23:00:00 20,3 17,1 18,8 22,5 18,7 3 2 10 6 WNW 1014,2 20 0 0,0
18.08.2019 22:00:00 21,3 17,1 18,9 22,5 18,8 5 3 14 8 WNW 1013,5 60 0 0,2
18.08.2019 21:00:00 22,5 16,5 19,6 22,3 18,7 6 3 26 14 NW 1012,4 20 0 0,0
18.08.2019 20:00:00 23,3 17,3 23,0 22,1 18,7 10 5 25 13 NW 1011,1 52 22 0,0
18.08.2019 19:00:00 24,1 17,3 24,1 21,9 18,8 13 7 34 19 NW 1011,1 49 47 0,0
18.08.2019 18:00:00 26,2 17,8 27,6 21,7 18,8 16 9 31 17 WNW 1010,0 49 47 0,0
18.08.2019 17:00:00 27,3 17,8 27,4 21,4 18,8 14 8 26 14 WZW 1009,6 60 16 0,0
18.08.2019 16:00:00 28,4 17,0 28,7 21,2 18,8 13 7 35 19 ZW 1009,6 35 42 0,0
18.08.2019 15:00:00 27,8 16,1 28,8 21,0 18,8 12 6 28 15 ZZW 1009,9 19 39 0,0
18.08.2019 14:00:00 27,6 16,9 29,0 20,8 18,8 12 6 24 13 ZZW 1010,1 49 43 0,0
18.08.2019 13:00:00 26,7 16,6 28,3 20,8 18,8 9 5 25 14 Z 1010,3 19 49 0,0
18.08.2019 12:00:00 25,8 16,9 27,5 20,8 18,8 9 5 23 13 ZZW 1010,8 60 60 0,0
18.08.2019 11:00:00 24,8 16,0 25,0 20,8 18,8 11 6 24 13 Z 1010,6 32 60 0,0
18.08.2019 10:00:00 22,9 15,2 22,9 21,0 18,8 7 4 35 19 ZZO 1010,2 39 60 0,0
18.08.2019 09:00:00 21,3 15,6 20,3 21,1 18,8 17 9 28 15 OZO 1009,5 45 60 0,0
18.08.2019 08:00:00 19,5 12,3 17,4 21,2 18,8 16 9 26 14 O 1009,8 50 31 0,0
18.08.2019 07:00:00 18,7 12,0 15,1 21,4 18,8 18 10 29 16 ONO 1010,0 60 0 0,0
18.08.2019 06:00:00 16,6 12,7 15,1 21,5 18,8 11 6 23 13 ONO 1010,7 60 0 0,0
18.08.2019 05:00:00 16,8 12,7 15,6 21,6 18,8 15 8 18 10 O 1011,2 60 0 0,0
18.08.2019 04:00:00 17,8 12,9 15,2 21,8 18,8 13 7 20 11 O 1011,8 60 0 0,0
18.08.2019 03:00:00 16,6 12,7 14,7 21,9 18,8 16 9 24 13 O 1012,7 60 0 0,0
18.08.2019 02:00:00 15,8 12,9 14,1 22,0 18,8 15 8 20 11 O 1013,6 60 0 0,0
18.08.2019 01:00:00 15,9 13,2 13,5 22,0 18,8 10 5 16 9 O 1014,3 59 0 0,0
18.08.2019 00:00:00 16,0 13,1 13,6 22,0 18,8 7 4 10 6 O 1014,6 57 0 0,0

tt = temperatuur
td = dauwpunt
tt 5cm = temperatuur 5cm
tt -20cm = temperatuur -20cm
tt -100cm = temperatuur -100cm
ff = windsnelheid
fx = windstoten
dd = windrichting
ppp = luchtdruk
vv = zicht
sd = Zonneschijnduur
rr = neerslag

Weerstations in de omgeving